When you browse on this site, cookies collect data to enhance your experience and personalize the content and advertising you see.
Visit our Privacy Policy to learn more. By continuing to use the site, you agree to this use of cookies and data.
EN

Hourly Weather Novyy Stan

Today, 14 August, Friday

Time Temperature Precipitation Wind Pressure Humidity
00:00 +8°C° 0 mm 2 mps 746 mmHg 86%
01:00 +8°C° 0 mm 2 mps 746 mmHg 88%
02:00 +7°C° 0 mm 2 mps 746 mmHg 93%
03:00 +7°C° 0 mm 2 mps 746 mmHg 93%
04:00 +7°C° 0 mm 2 mps 746 mmHg 93%
05:00 +7°C° 0 mm 2 mps 746 mmHg 93%
06:00 +9°C° 0 mm 2 mps 746 mmHg 87%
07:00 +11°C° 0 mm 3 mps 746 mmHg 81%
08:00 +13°C° 0 mm 3 mps 746 mmHg 75%
09:00 +14°C° 0 mm 3 mps 746 mmHg 69%
10:00 +16°C° 0 mm 3 mps 746 mmHg 64%
11:00 +18°C° 0 mm 3 mps 746 mmHg 58%
12:00 +18°C° 0.1 mm 3 mps 746 mmHg 57%
13:00 +18°C° 0.1 mm 3 mps 746 mmHg 57%
14:00 +18°C° 0.1 mm 3 mps 746 mmHg 56%
15:00 +18°C° 0 mm 3 mps 746 mmHg 58%
16:00 +18°C° 0 mm 3 mps 746 mmHg 61%
17:00 +18°C° 0 mm 3 mps 746 mmHg 63%
18:00 +16°C° 0 mm 2 mps 746 mmHg 70%
19:00 +14°C° 0 mm 2 mps 746 mmHg 76%
20:00 +13°C° 0 mm 1 mps 746 mmHg 83%
21:00 +12°C° 0 mm 1 mps 746 mmHg 84%
22:00 +12°C° 0 mm 1 mps 747 mmHg 84%
23:00 +11°C° 0 mm 1 mps 747 mmHg 85%

Tomorrow, 15 August, Saturday

Time Temperature Precipitation Wind Pressure Humidity
00:00 +11°C° 0 mm 1 mps 747 mmHg 87%
01:00 +11°C° 0 mm 1 mps 747 mmHg 88%
02:00 +10°C° 0 mm 1 mps 747 mmHg 89%
03:00 +10°C° 0 mm 1 mps 747 mmHg 90%
04:00 +10°C° 0 mm 1 mps 747 mmHg 90%
05:00 +10°C° 0 mm 1 mps 747 mmHg 91%
06:00 +12°C° 0 mm 1 mps 747 mmHg 85%
07:00 +14°C° 0 mm 1 mps 747 mmHg 79%
08:00 +16°C° 0 mm 2 mps 747 mmHg 73%
09:00 +17°C° 0 mm 2 mps 747 mmHg 69%
10:00 +18°C° 0 mm 2 mps 748 mmHg 66%
11:00 +19°C° 0 mm 2 mps 748 mmHg 62%
12:00 +20°C° 0 mm 2 mps 747 mmHg 61%
13:00 +20°C° 0 mm 2 mps 747 mmHg 60%
14:00 +21°C° 0 mm 2 mps 747 mmHg 59%
15:00 +20°C° 0.1 mm 2 mps 747 mmHg 63%
16:00 +20°C° 0.1 mm 2 mps 746 mmHg 67%
17:00 +20°C° 0.1 mm 2 mps 746 mmHg 71%
18:00 +18°C° 0.1 mm 2 mps 746 mmHg 76%
19:00 +17°C° 0.1 mm 2 mps 746 mmHg 81%
20:00 +16°C° 0.1 mm 2 mps 745 mmHg 86%
21:00 +15°C° 0 mm 2 mps 746 mmHg 88%
22:00 +15°C° 0 mm 2 mps 746 mmHg 89%
23:00 +13°C° 0 mm 3 mps 746 mmHg 90%

Day after tomorrow, 16 August, Sunday

Time Temperature Precipitation Wind Pressure Humidity
00:00 +13°C° 0 mm 3 mps 745 mmHg 92%
01:00 +13°C° 0 mm 3 mps 745 mmHg 93%
02:00 +12°C° 0 mm 3 mps 745 mmHg 95%
03:00 +12°C° 0 mm 3 mps 745 mmHg 95%
04:00 +13°C° 0 mm 2 mps 745 mmHg 96%
05:00 +13°C° 0 mm 2 mps 745 mmHg 97%
06:00 +15°C° 0 mm 2 mps 745 mmHg 93%
07:00 +16°C° 0 mm 2 mps 745 mmHg 89%
08:00 +18°C° 0 mm 2 mps 745 mmHg 85%
09:00 +20°C° 0.4 mm 3 mps 745 mmHg 81%
10:00 +21°C° 0.4 mm 3 mps 745 mmHg 78%
11:00 +22°C° 0.4 mm 3 mps 745 mmHg 74%
12:00 +24°C° 0.2 mm 3 mps 745 mmHg 71%
13:00 +23°C° 0.2 mm 4 mps 745 mmHg 67%
14:00 +25°C° 0.2 mm 4 mps 745 mmHg 64%
15:00 +25°C° 0.1 mm 3 mps 745 mmHg 67%
16:00 +25°C° 0.1 mm 3 mps 744 mmHg 70%
17:00 +24°C° 0.1 mm 2 mps 744 mmHg 73%
18:00 +23°C° 0 mm 2 mps 744 mmHg 79%
19:00 +20°C° 0 mm 2 mps 744 mmHg 84%
20:00 +18°C° 0 mm 2 mps 744 mmHg 90%
21:00 +18°C° 0 mm 2 mps 745 mmHg 91%
22:00 +17°C° 0 mm 2 mps 745 mmHg 92%
23:00 +17°C° 0 mm 2 mps 745 mmHg 92%

17 August, Monday

Time Temperature Precipitation Wind Pressure Humidity
00:00 +16°C° 0 mm 2 mps 745 mmHg 92%
01:00 +16°C° 0 mm 2 mps 745 mmHg 92%
02:00 +15°C° 0 mm 2 mps 745 mmHg 93%
03:00 +15°C° 0 mm 2 mps 745 mmHg 93%
04:00 +15°C° 0 mm 2 mps 745 mmHg 93%
05:00 +15°C° 0 mm 2 mps 744 mmHg 92%
06:00 +17°C° 0 mm 2 mps 745 mmHg 88%
07:00 +19°C° 0 mm 2 mps 745 mmHg 83%
08:00 +20°C° 0 mm 2 mps 745 mmHg 79%
09:00 +22°C° 0.1 mm 3 mps 745 mmHg 74%
10:00 +24°C° 0.1 mm 3 mps 745 mmHg 69%
11:00 +25°C° 0.1 mm 3 mps 745 mmHg 64%
12:00 +26°C° 0 mm 3 mps 744 mmHg 62%
13:00 +26°C° 0 mm 3 mps 744 mmHg 60%
14:00 +27°C° 0 mm 4 mps 744 mmHg 59%
15:00 +26°C° 0.1 mm 3 mps 744 mmHg 63%
16:00 +26°C° 0.1 mm 3 mps 743 mmHg 67%
17:00 +25°C° 0.1 mm 2 mps 743 mmHg 71%
18:00 +23°C° 0 mm 2 mps 743 mmHg 77%
19:00 +21°C° 0 mm 2 mps 743 mmHg 82%
20:00 +20°C° 0 mm 1 mps 743 mmHg 88%
21:00 +19°C° 0 mm 1 mps 743 mmHg 88%
22:00 +19°C° 0 mm 1 mps 743 mmHg 89%
23:00 +18°C° 0 mm 1 mps 743 mmHg 90%

18 August, Tuesday

Time Temperature Precipitation Wind Pressure Humidity
00:00 +18°C° 0 mm 1 mps 743 mmHg 90%
01:00 +16°C° 0 mm 1 mps 743 mmHg 91%
02:00 +15°C° 0 mm 0 mps 743 mmHg 91%
03:00 +16°C° 0 mm 1 mps 742 mmHg 91%
04:00 +16°C° 0 mm 1 mps 742 mmHg 91%
05:00 +16°C° 0 mm 1 mps 742 mmHg 91%
06:00 +18°C° 0.3 mm 1 mps 742 mmHg 89%
07:00 +19°C° 0.3 mm 1 mps 742 mmHg 87%
08:00 +20°C° 0.3 mm 2 mps 742 mmHg 85%
09:00 +20°C° 0.5 mm 2 mps 742 mmHg 83%
10:00 +21°C° 0.5 mm 2 mps 742 mmHg 82%
11:00 +21°C° 0.5 mm 2 mps 742 mmHg 81%
12:00 +21°C° 0.4 mm 2 mps 741 mmHg 81%
13:00 +22°C° 0.4 mm 1 mps 741 mmHg 81%
14:00 +22°C° 0.4 mm 1 mps 741 mmHg 81%
15:00 +22°C° 0.1 mm 1 mps 741 mmHg 82%
16:00 +21°C° 0.1 mm 1 mps 741 mmHg 82%
17:00 +19°C° 0.1 mm 0 mps 740 mmHg 83%
18:00 +20°C° 0 mm 1 mps 740 mmHg 84%
19:00 +20°C° 0 mm 1 mps 740 mmHg 85%
20:00 +19°C° 0 mm 1 mps 740 mmHg 86%
21:00 +18°C° 0 mm 1 mps 740 mmHg 87%
22:00 +18°C° 0 mm 1 mps 740 mmHg 88%
23:00 +16°C° 0 mm 1 mps 740 mmHg 88%

19 August, Wednesday

Time Temperature Precipitation Wind Pressure Humidity
00:00 +16°C° 0 mm 2 mps 740 mmHg 88%
01:00 +16°C° 0 mm 2 mps 739 mmHg 88%
02:00 +16°C° 0 mm 2 mps 739 mmHg 88%
03:00 +16°C° 0 mm 2 mps 739 mmHg 89%
04:00 +16°C° 0 mm 3 mps 739 mmHg 89%
05:00 +16°C° 0 mm 3 mps 739 mmHg 89%
06:00 +17°C° 0 mm 3 mps 738 mmHg 85%
07:00 +18°C° 0 mm 4 mps 738 mmHg 81%
08:00 +20°C° 0 mm 4 mps 738 mmHg 77%
09:00 +21°C° 0 mm 4 mps 738 mmHg 72%
10:00 +22°C° 0 mm 4 mps 738 mmHg 68%
11:00 +23°C° 0 mm 4 mps 738 mmHg 64%
12:00 +25°C° 0 mm 4 mps 738 mmHg 63%
13:00 +26°C° 0 mm 4 mps 738 mmHg 62%
14:00 +26°C° 0 mm 4 mps 737 mmHg 61%
15:00 +26°C° 0.1 mm 4 mps 737 mmHg 64%
16:00 +26°C° 0.1 mm 3 mps 737 mmHg 68%
17:00 +25°C° 0.1 mm 3 mps 737 mmHg 72%
18:00 +24°C° 0 mm 3 mps 737 mmHg 78%
19:00 +21°C° 0 mm 3 mps 736 mmHg 84%
20:00 +19°C° 0 mm 3 mps 736 mmHg 90%
21:00 +19°C° 0.1 mm 3 mps 736 mmHg 91%
22:00 +18°C° 0.1 mm 3 mps 736 mmHg 92%
23:00 +18°C° 0.1 mm 3 mps 735 mmHg 94%
Show more